Back to catalog

ORBCOMM FM 8

AliveCommunicationsLEO
NORAD 25112·PAYLOAD·🇺🇸 United States

Launched Dec 23, 1997 from Cape Canaveral Space Force Station

Loading…

Next Passes (next 24 hours)

TLE

FreshSource: Space-Track

Epoch: Sep 14, 2026, 15:05 UTC

1 25112U 97084A   26257.62849318  .00000804  00000-0  25618-3 0  9999
2 25112  45.0152 343.1412 0003605  38.2423 321.8684 14.47437111507180

Track ORBCOMM FM 8 in real time with AllMySat

Download on the App Store